ROMMA est une association bénévole à but non lucratif. Votre soutien est indispensable : ADHERER à ROMMA ou FAIRE un DON

Crêts du Salève - (74, Haute-Savoie)

Salève (1270 m)   Longitude: 6° 10' 28'' E   Latitude: 46° 7' 42'' N Station romma n°73
 

Détail journalier du     <<     >>

Température Precipitation Humidité Vent Dir Rafale Dir. rafale Ensol.
Heure (°C) (mm) (%) (km/h) (km/h) (min)
01:00 18.90717N13N0
02:00 18.50705OSO13OSO0
03:00 17.20714SO11OSO0
04:00 17.00686ONO11ONO0
05:00 17.10654ONO6ONO0
06:00 17.20621ONO6ONO0
07:00 17.706200ONO50
08:00 18.307302ONO60
09:00 17.808005NO60
10:00 18.50753SE11SE60
11:00 19.70741SE8SE50
12:00 18.60704SO8SSE60
13:00 18.70707O13O60
14:00 19.50748O16ONO60
15:00 20.307210O21ONO60
16:00 21.106511ONO23ONO60
17:00 21.706414O24O60
18:00 21.806214OSO23OSO60
19:00 21.406717OSO26O60
20:00 20.707216OSO24OSO60
21:00 20.407215O21OSO0
22:00 20.106816OSO24SO0
23:00 19.706914SSO23SSO0
minuit 18.907024S37S0

Graphique du 25-06-2020

 

Serveur OMMA